Time,TemperatureF,DewpointF,PressureIn,WindDirection,WindDirectionDegrees,WindSpeedMPH,WindSpeedGustMPH,Humidity,HourlyPrecipIn,Conditions,Clouds,dailyrainin,SoftwareType,DateUTC
2013-10-20 00:02:00,-999.0,-99.9,29.96,South,188,4.0,7.0,-999,-99.99,,,-99.99,,2013-10-20 04:02:00,
2013-10-20 00:24:00,41.0,36.0,29.96,South,171,5.0,7.0,83,0.00,,,0.25,,2013-10-20 04:24:00,
2013-10-20 00:54:00,41.0,36.0,29.97,South,182,4.0,6.0,83,0.00,,,0.25,,2013-10-20 04:54:00,
2013-10-20 01:23:00,41.0,37.0,29.96,South,187,5.0,7.0,84,0.00,,,0.25,,2013-10-20 05:23:00,
2013-10-20 01:43:00,41.0,37.0,29.96,South,183,6.0,8.0,84,0.00,,,0.25,,2013-10-20 05:43:00,
2013-10-20 01:52:00,41.0,37.0,29.96,South,189,5.0,8.0,84,0.00,,,0.25,,2013-10-20 05:52:00,
2013-10-20 02:22:00,40.0,36.0,29.95,South,180,5.0,7.0,85,0.00,,,0.25,,2013-10-20 06:22:00,
2013-10-20 02:52:00,40.0,36.0,29.96,South,171,5.0,8.0,85,0.00,,,0.25,,2013-10-20 06:52:00,
2013-10-20 03:22:00,40.0,36.0,29.96,SSE,157,5.0,6.0,86,0.00,,,0.25,,2013-10-20 07:22:00,
2013-10-20 03:42:00,39.0,35.0,29.96,South,169,4.0,7.0,87,0.00,,,0.21,,2013-10-20 07:42:00,
2013-10-20 03:52:00,39.0,36.0,29.95,SSE,167,5.0,7.0,88,0.00,,,0.21,,2013-10-20 07:52:00,
2013-10-20 04:22:00,38.0,35.0,29.94,South,180,5.0,7.0,90,0.00,,,0.21,,2013-10-20 08:22:00,
2013-10-20 04:42:00,38.0,35.0,29.94,SSE,161,5.0,7.0,90,0.00,,,0.17,,2013-10-20 08:42:00,
2013-10-20 04:52:00,39.0,36.0,29.93,SSE,163,6.0,7.0,90,0.00,,,0.17,,2013-10-20 08:52:00,
2013-10-20 05:21:00,39.0,36.0,29.93,SSE,162,5.0,8.0,90,0.00,,,0.17,,2013-10-20 09:21:00,
2013-10-20 05:43:00,39.0,36.0,29.94,South,171,4.0,6.0,90,0.00,,,0.15,,2013-10-20 09:43:00,
2013-10-20 05:53:00,38.0,36.0,29.94,SSE,163,4.0,7.0,91,0.00,,,0.15,,2013-10-20 09:53:00,
2013-10-20 06:23:00,38.0,36.0,29.94,SSE,165,5.0,7.0,91,0.00,,,0.15,,2013-10-20 10:23:00,
2013-10-20 06:53:00,38.0,36.0,29.95,SSE,164,5.0,8.0,92,0.00,,,0.10,,2013-10-20 10:53:00,
2013-10-20 07:22:00,38.0,36.0,29.95,SSE,155,5.0,8.0,92,0.00,,,0.10,,2013-10-20 11:22:00,
2013-10-20 07:42:00,38.0,36.0,29.95,SSE,168,6.0,8.0,92,0.00,,,0.05,,2013-10-20 11:42:00,
2013-10-20 07:52:00,38.0,36.0,29.95,SSE,163,4.0,6.0,93,0.00,,,0.05,,2013-10-20 11:52:00,
2013-10-20 08:21:00,37.0,35.0,29.96,SSE,167,4.0,7.0,94,0.00,,,0.05,,2013-10-20 12:21:00,
2013-10-20 08:42:00,37.0,35.0,29.96,SSE,150,5.0,9.0,94,0.00,,,0.01,,2013-10-20 12:42:00,
2013-10-20 08:52:00,38.0,36.0,29.96,SSE,164,5.0,8.0,94,0.00,,,0.01,,2013-10-20 12:52:00,
2013-10-20 09:21:00,41.0,38.0,29.97,SE,126,6.0,9.0,89,0.00,,,0.01,,2013-10-20 13:21:00,
2013-10-20 09:42:00,42.0,38.0,29.98,SSE,159,5.0,11.0,87,0.00,,,0.00,,2013-10-20 13:42:00,
2013-10-20 09:52:00,44.0,40.0,29.98,WSW,237,6.0,10.0,85,0.00,,,0.00,,2013-10-20 13:52:00,
2013-10-20 10:22:00,47.0,41.0,29.98,South,186,5.0,13.0,79,0.00,,,0.00,,2013-10-20 14:22:00,
2013-10-20 10:52:00,49.0,41.0,29.98,SSW,204,9.0,16.0,75,0.00,,,0.00,,2013-10-20 14:52:00,
2013-10-20 11:22:00,51.0,42.0,29.98,SW,217,8.0,14.0,71,0.00,,,0.00,,2013-10-20 15:22:00,
2013-10-20 11:54:00,53.0,42.0,29.98,SSW,192,9.0,17.0,67,0.00,,,0.00,,2013-10-20 15:54:00,
2013-10-20 12:24:00,55.0,43.0,29.98,SSE,157,8.0,18.0,64,0.00,,,0.00,,2013-10-20 16:24:00,
2013-10-20 12:43:00,56.0,43.0,29.98,South,173,9.0,15.0,62,0.00,,,0.00,,2013-10-20 16:43:00,
2013-10-20 12:54:00,56.0,43.0,29.98,South,183,10.0,17.0,61,0.00,,,0.00,,2013-10-20 16:54:00,
2013-10-20 13:23:00,58.0,43.0,29.97,SSE,148,9.0,17.0,57,0.00,,,0.00,,2013-10-20 17:23:00,
2013-10-20 13:42:00,59.0,43.0,29.96,SSW,213,11.0,19.0,56,0.00,,,0.00,,2013-10-20 17:42:00,
2013-10-20 13:52:00,59.0,43.0,29.96,South,191,11.0,18.0,56,0.00,,,0.00,,2013-10-20 17:52:00,
2013-10-20 14:21:00,60.0,43.0,29.95,SSE,155,11.0,21.0,53,0.00,,,0.00,,2013-10-20 18:21:00,
2013-10-20 14:42:00,60.0,42.0,29.94,SSW,194,13.0,22.0,52,0.00,,,0.00,,2013-10-20 18:42:00,
2013-10-20 14:52:00,61.0,43.0,29.94,SW,214,11.0,15.0,52,0.00,,,0.00,,2013-10-20 18:52:00,
2013-10-20 15:22:00,61.0,43.0,29.93,SW,221,11.0,18.0,51,0.00,,,0.00,,2013-10-20 19:22:00,
2013-10-20 15:42:00,62.0,43.0,29.93,SSE,163,10.0,21.0,49,0.00,,,0.00,,2013-10-20 19:42:00,
2013-10-20 15:52:00,62.0,43.0,29.93,WSW,257,13.0,22.0,49,0.00,,,0.00,,2013-10-20 19:52:00,
2013-10-20 16:22:00,62.0,43.0,29.92,South,187,12.0,23.0,49,0.00,,,0.00,,2013-10-20 20:22:00,
2013-10-20 16:52:00,62.0,43.0,29.92,SSW,203,12.0,23.0,50,0.00,,,0.00,,2013-10-20 20:52:00,
2013-10-20 17:21:00,61.0,42.0,29.92,SSE,150,12.0,22.0,50,0.00,,,0.00,,2013-10-20 21:21:00,
2013-10-20 17:43:00,61.0,42.0,29.92,SSW,205,12.0,19.0,50,0.00,,,0.00,,2013-10-20 21:43:00,
2013-10-20 17:54:00,61.0,43.0,29.92,South,186,10.0,18.0,51,0.00,,,0.00,,2013-10-20 21:54:00,
2013-10-20 18:23:00,61.0,43.0,29.92,South,170,10.0,19.0,51,0.00,,,0.00,,2013-10-20 22:23:00,
2013-10-20 18:43:00,60.0,42.0,29.92,SSE,164,10.0,19.0,52,0.00,,,0.00,,2013-10-20 22:43:00,
2013-10-20 18:53:00,59.0,42.0,29.92,SW,233,10.0,18.0,53,0.00,,,0.00,,2013-10-20 22:53:00,
2013-10-20 19:22:00,58.0,43.0,29.92,SE,134,8.0,13.0,58,0.00,,,0.00,,2013-10-20 23:22:00,
2013-10-20 19:42:00,57.0,43.0,29.93,South,169,7.0,11.0,60,0.00,,,0.00,,2013-10-20 23:42:00,
2013-10-20 19:52:00,57.0,43.0,29.93,South,177,8.0,14.0,60,0.00,,,0.00,,2013-10-20 23:52:00,
2013-10-20 20:11:00,56.0,43.0,29.93,SSE,161,8.0,14.0,61,0.00,,,0.00,,2013-10-21 00:11:00,
2013-10-20 20:21:00,56.0,43.0,29.93,South,173,8.0,13.0,61,0.00,,,0.00,,2013-10-21 00:21:00,
2013-10-20 20:43:00,55.0,42.0,29.93,SSE,160,8.0,14.0,62,0.00,,,0.00,,2013-10-21 00:43:00,
2013-10-20 20:52:00,55.0,43.0,29.93,SSE,165,8.0,12.0,63,0.00,,,0.00,,2013-10-21 00:52:00,
2013-10-20 21:21:00,54.0,43.0,29.93,SSE,156,7.0,13.0,65,0.00,,,0.00,,2013-10-21 01:21:00,
2013-10-20 21:42:00,53.0,42.0,29.93,SW,214,8.0,13.0,67,0.00,,,0.00,,2013-10-21 01:42:00,
2013-10-20 21:52:00,53.0,43.0,29.94,South,185,7.0,10.0,68,0.00,,,0.00,,2013-10-21 01:52:00,
2013-10-20 22:22:00,52.0,42.0,29.93,WSW,256,7.0,13.0,69,0.00,,,0.00,,2013-10-21 02:22:00,
2013-10-20 22:42:00,52.0,43.0,29.94,SSW,197,7.0,13.0,70,0.00,,,0.00,,2013-10-21 02:42:00,
2013-10-20 22:52:00,52.0,43.0,29.94,SSW,200,7.0,13.0,71,0.00,,,0.00,,2013-10-21 02:52:00,
2013-10-20 23:22:00,51.0,43.0,29.94,South,178,7.0,9.0,73,0.00,,,0.00,,2013-10-21 03:22:00,
2013-10-20 23:45:00,50.0,42.0,29.94,South,181,5.0,8.0,74,0.00,,,0.00,,2013-10-21 03:45:00,
2013-10-20 23:55:00,50.0,42.0,29.94,South,191,5.0,8.0,75,0.00,,,0.00,,2013-10-21 03:55:00,